This is the latest recevied weather packets stored in our database for station/object IR3AS. If no packets are shown the sender has not sent any weather packets the latest 1 day(s).
| Time | Temp. | Humidity | Pressure | Rain* | Wind** | Luminosity | Snow |
|---|---|---|---|---|---|---|---|
| 1777964152 | 3.33° C | 87% | 855.7 hPa | 0 mm | 1.79 m/s, 292° | - | - |
| 1777963852 | 3.33° C | 86% | 855.6 hPa | 0 mm | 0.89 m/s, 292° | - | - |
| 1777963552 | 3.33° C | 86% | 855.3 hPa | 0 mm | 1.34 m/s, 292° | - | - |
| 1777963252 | 3.33° C | 85% | 855.7 hPa | 0 mm | 1.34 m/s, 292° | - | - |
| 1777962953 | 3.33° C | 85% | 855.2 hPa | 0 mm | 1.34 m/s, 292° | - | - |
| 1777962652 | 3.33° C | 85% | 855.3 hPa | 0 mm | 1.34 m/s, 292° | - | - |
| 1777962352 | 3.33° C | 85% | 855 hPa | 0 mm | 0.89 m/s, 292° | - | - |
| 1777962052 | 3.33° C | 85% | 855.3 hPa | 0 mm | 1.34 m/s, 292° | - | - |
| 1777961752 | 3.33° C | 85% | 854.9 hPa | 0 mm | 1.34 m/s, 292° | - | - |
| 1777961452 | 3.33° C | 85% | 855.9 hPa | 0 mm | 1.34 m/s, 292° | - | - |
| 1777961152 | 3.33° C | 85% | 856.1 hPa | 0 mm | 1.79 m/s, 292° | - | - |
| 1777960852 | 3.33° C | 84% | 855.7 hPa | 0 mm | 1.34 m/s, 292° | - | - |
| 1777960552 | 3.33° C | 85% | 855.9 hPa | 0 mm | 1.79 m/s, 315° | - | - |
| 1777960252 | 3.33° C | 85% | 856.1 hPa | 0 mm | 0.89 m/s, 315° | - | - |
| 1777959952 | 3.33° C | 84% | 855.6 hPa | 0 mm | 1.79 m/s, 292° | - | - |
| 1777959652 | 3.33° C | 85% | 855.8 hPa | 0 mm | 1.34 m/s, 292° | - | - |
| 1777959354 | 3.33° C | 84% | 856 hPa | 0 mm | 1.79 m/s, 292° | - | - |
| 1777959052 | 3.33° C | 84% | 855.6 hPa | 0 mm | 1.79 m/s, 292° | - | - |
| 1777958752 | 3.33° C | 85% | 856 hPa | 0 mm | 1.34 m/s, 292° | - | - |
| 1777958452 | 3.33° C | 85% | 855.8 hPa | 0 mm | 1.34 m/s, 292° | - | - |
| 1777958152 | 3.33° C | 84% | 856 hPa | 0 mm | 1.34 m/s, 292° | - | - |
| 1777957852 | 3.33° C | 84% | 855.9 hPa | 0 mm | 1.34 m/s, 292° | - | - |
| 1777957552 | 2.78° C | 84% | 855.3 hPa | 0 mm | 1.34 m/s, 292° | - | - |
| 1777957252 | 2.78° C | 85% | 855.6 hPa | 0 mm | 1.34 m/s, 292° | - | - |
| 1777956952 | 2.78° C | 85% | 855.9 hPa | 0 mm | 1.34 m/s, 292° | - | - |
* Rain latest hour (hover to see other rain measurements)
** Current wind speed in m/s (hover to see current wind gust speed)